星链-4051 (STARLINK-4051 )

导读

STARLINK-4051是美国SpaceX公司星链星座的一颗卫星,于2022年7月24日发射入轨。作为星链低轨互联网星座的组成部分,它运行在近地轨道,配备相控阵天线与太阳能电池板,通过Ku/Ka波段提供高速卫星互联网服务,服务全球尤其偏远地区接入,是星链大规模全球覆盖星座部署的一环,助力SpaceX构建低轨卫星通信网络。

Basic Information
目录编号:
53273
目录名称:
STARLINK-4051
国际标识:
2022-086AH
轨道中心:
EARTH
卫星名称:
星链-4051
卫星全名:
星链-4051 (STARLINK-4051 )
卫星状态:
在轨 (已飞行1422 天)
发射日期:
2022-07-24 UTC
国别 :
美国 (US)
星等 :
--
Orbit Information
数据来源 国际轨道数据 AOE轨道数据
星历时间 2026-06-14T11:23:35+0800
1天前
查看轨道信息
2026-06-15T02:00:00+0800
11小时前
查看轨道信息
半长轴 6917.911km 6917.904km
偏心率 0.0001403 0.0001526
轨道倾角 53.161° 53.161°
近地点辐角 90.234° 74.416°
升交点赤经 111.056° 108.322°
平近点角 269.881° 353.448°
近地点 538.803km 538.711km
远地点 540.745km 540.823km
周期 95.438分钟 95.438分钟
每日圈数 15.088302 15.088326
Detailed Information
固有亮度:
5
最大亮度:
2.5
卫星平台:
Starlink v1.5
覆盖范围:
全球
运营商:
太空探索技术公司
运营商所在国:
美国
制造商(研发单位):
太空探索技术公司
制造商所在国:
美国
使用方式:
暂无
Satellite Introduction
星链(Starlink)计划是由太空探索技术公司(SpaceX)提出的一个巨型低轨卫星互联网星座项目,计划在2019年至2024年间在太空搭建由约1.2万颗卫星组成的“星链”网络,其中1584颗将部署在地球上空550千米处的近地轨道,并从2020年开始工作。该卫星仍在工作。
2D Orbit Map
3D Orbit Map
Orbit Altitude Analysis Chart
Orbit Inclination Analysis Chart
Orbit Comprehensive Analysis Chart
View Comprehensive Chart